Back to catalog

USA 32

AliveMilitaryPO
NORAD 19460·PAYLOAD·🇺🇸 United States

Launched Sep 5, 1988 from Vandenberg Space Force Base

Loading…

Next Passes (next 24 hours)

TLE

FreshSource: Space-Track

Epoch: Sep 13, 2026, 12:59 UTC

1 19460U 88078A   26256.54164724  .00000120  00000-0  35575-4 0  9997
2 19460  84.9825  61.6703 0003455 152.1831 207.9548 14.34462704121856

Track USA 32 in real time with AllMySat

Download on the App Store